This is the latest recevied weather packets stored in our database for station/object SP1BMW-13. If no packets are shown the sender has not sent any weather packets the latest 10 day(s).
| Time | Temp. | Humidity | Pressure | Rain* | Wind** | Luminosity | Snow |
|---|---|---|---|---|---|---|---|
| 1787759294 | 24.44° C | 41% | 1020.4 hPa | 0 mm | 0.89 m/s, 36° | 185 W/m² | - |
| 1787759234 | 24.44° C | 40% | 1020.4 hPa | 0 mm | 0.89 m/s, 28° | 202 W/m² | - |
| 1787759174 | 24.44° C | 40% | 1020.3 hPa | 0 mm | 1.79 m/s, 40° | 211 W/m² | - |
| 1787759114 | 24.44° C | 42% | 1020.3 hPa | 0 mm | 0.89 m/s, 27° | 221 W/m² | - |
| 1787759054 | 24.44° C | 42% | 1020.4 hPa | 0 mm | 0.45 m/s, 35° | 230 W/m² | - |
| 1787758994 | 24.44° C | 40% | 1020.4 hPa | 0 mm | 0.89 m/s, 77° | 237 W/m² | - |
| 1787758934 | 24.44° C | 40% | 1020.3 hPa | 0 mm | 0.89 m/s, 37° | 243 W/m² | - |
| 1787758874 | 24.44° C | 42% | 1020.5 hPa | 0 mm | 0.45 m/s, 141° | 250 W/m² | - |
| 1787758814 | 24.44° C | 41% | 1020.6 hPa | 0 mm | 0.89 m/s, 62° | 256 W/m² | - |
| 1787758754 | 24.44° C | 43% | 1020.3 hPa | 0 mm | 0.45 m/s, 61° | 262 W/m² | - |
| 1787758694 | 24.44° C | 41% | 1020.5 hPa | 0 mm | 2.24 m/s, 65° | 264 W/m² | - |
| 1787758634 | 24.44° C | 41% | 1020.4 hPa | 0 mm | 0.89 m/s, 76° | 269 W/m² | - |
| 1787758574 | 24.44° C | 41% | 1020.4 hPa | 0 mm | 0.89 m/s, 22° | 275 W/m² | - |
| 1787758514 | 24.44° C | 42% | 1020.5 hPa | 0 mm | 0.89 m/s, 42° | 277 W/m² | - |
| 1787758454 | 24.44° C | 40% | 1020.3 hPa | 0 mm | 0.45 m/s, 91° | 277 W/m² | - |
| 1787758394 | 24.44° C | 41% | 1020.5 hPa | 0 mm | 0.89 m/s, 39° | 279 W/m² | - |
| 1787758334 | 24.44° C | 41% | 1020.5 hPa | 0 mm | 0.89 m/s, 73° | 235 W/m² | - |
| 1787758274 | 23.89° C | 42% | 1020.6 hPa | 0 mm | 0.45 m/s, 38° | 237 W/m² | - |
| 1787758214 | 23.89° C | 44% | 1020.4 hPa | 0 mm | 0.45 m/s, 24° | 266 W/m² | - |
| 1787758154 | 23.89° C | 41% | 1020.4 hPa | 0 mm | 0.45 m/s, 74° | 274 W/m² | - |
| 1787758095 | 23.89° C | 42% | 1020.5 hPa | 0 mm | 0.45 m/s, 92° | 270 W/m² | - |
| 1787758035 | 23.89° C | 41% | 1020.5 hPa | 0 mm | 1.34 m/s, 53° | 266 W/m² | - |
| 1787757975 | 23.89° C | 43% | 1020.6 hPa | 0 mm | 0.89 m/s, 50° | 263 W/m² | - |
| 1787757914 | 23.33° C | 42% | 1020.6 hPa | 0 mm | 1.34 m/s, 51° | 263 W/m² | - |
| 1787757855 | 23.33° C | 43% | 1020.7 hPa | 0 mm | 1.34 m/s, 59° | 265 W/m² | - |
* Rain latest hour (hover to see other rain measurements)
** Current wind speed in m/s (hover to see current wind gust speed)